Regional Weather Roundup
Issued by NWS Wakefield, VA

Home | Current Version | Previous Version | Graphics & Text | Print | Product List | Glossary On
Versions: 1 2 3 4 5 6 7 8 9 10 11 12 13 14 15 16 17 18 19 20 21 22 23 24 25 26 27
000
ASUS41 KAKQ 301515
RWRAKQ

REGIONAL WEATHER ROUNDUP
NATIONAL WEATHER SERVICE WAKEFIELD VA
1100 AM EDT SAT APR 30 2016

Note: "fair" indicates few or no clouds below 12,000 feet with no
significant weather and/or obstructions to visibility. * = Denotes
station may not report precipitation (e.g., rain,snow,etc.),
thunder or fog.

VAZ042-051-052>054-056-301600-
NORTHERN VIRGINIA

CITY           SKY/WX    TMP DP  RH WIND       PRES   REMARKS
WASH NATIONAL  CLOUDY    53  47  79 NE8       30.20F
DULLES         CLOUDY    54  47  77 E6        30.19F
FORT BELVOIR   CLOUDY    54  47  76 VRB1      30.19F
QUANTICO       CLOUDY    55  48  77 E5        30.21S
FREDERICKSBRG* CLOUDY    54  52  94 E3        30.19S
STAFFORD*      CLOUDY    53  47  81 E6        30.23S
WARRENTON      CLOUDY    56  47  72 CALM      30.18S
CULPEPER*      CLOUDY    55  51  86 CALM      30.20R
MANASSAS*      CLOUDY    55  50  82 CALM      30.19F
LEESBURG*      CLOUDY    54  54 100 CALM      30.20F FOG
WINCHESTER     CLOUDY    54  50  87 E6        30.17S HAZE
FRONT ROYAL*   CLOUDY    54  50  87 SE5       30.16S
LURAY*         CLOUDY    55  54  94 CALM      30.16S
$$

VAZ048-049-060>072-079>083-301600-
CENTRAL AND SOUTH CENTRAL VIRGINIA

CITY           SKY/WX    TMP DP  RH WIND       PRES   REMARKS
RICHMOND       CLOUDY    56  50  80 E8        30.18S
CHESTERFIELD*  CLOUDY    57  41  54 SE3       30.19S
PETERSBURG*    CLOUDY    60  51  73 NE12      30.18S
HANOVER        CLOUDY    57  49  74 VRB5      30.20S
TAPPAHANNOCK*  CLOUDY    56  49  78 E9        30.19F
QUINTON*       CLOUDY    56  50  82 NE6       30.18S
CHARLOTTSVILLE CLOUDY    55  49  80 SE3       30.18R
GORDONSVILLE*  CLOUDY    54  51  90 E3        30.18R
ORANGE*        CLOUDY    54  54 100 CALM      30.21R
LOUISA*        CLOUDY    57  54  88 CALM      30.18R
BUMPASS*       CLOUDY    56  50  80 NE3       30.19R
FARMVILLE*     CLOUDY    58  53  82 NE8       30.16R
CREWE*         CLOUDY    57  54  91 NE3       30.17R
FORT PICKETT*  NOT AVBL
CHASE CITY*    CLOUDY    56  55  94 NE3       30.16R
CLARKSVILLE*   CLOUDY    55  54  94 E8        30.16R
SOUTH HILL*    CLOUDY    55  52  88 CALM      30.22R
LAWRENCEVILLE* CLOUDY    56  52  84 NE5       30.17R
EMPORIA*       CLOUDY    55  52  88 NE5       30.18R
$$

VAZ088>098-301600-
SOUTHEAST VIRGINIA

CITY           SKY/WX    TMP DP  RH WIND       PRES   REMARKS
NORFOLK        CLOUDY    55  50  83 NE10      30.18S
VIRGINIA BEACH CLOUDY    59  50  72 NE15      30.17S
NORFOLK NAVAL  CLOUDY    56  51  84 NE12      30.19S
WEST POINT*    CLOUDY    56  50  82 NE6       30.20S
SALUDA*        CLOUDY    54  51  87 E8        30.18F
NEWPORT NEWS   CLOUDY    56  51  84 E9        30.18S
LANGLEY AFB    CLOUDY    54  52  94 E9        30.17F
FORT EUSTIS    CLOUDY    57  51  80 E8        30.16S
WILLIAMSBURG*  FAIR      59  54  82 CALM      30.18F
HR EXEC AP*    CLOUDY    55  52  88 E12       30.19F
FRANKLIN*      CLOUDY    58  51  79 NE8       30.17S
US460-WAKEFLD  CLOUDY    58  51  78 E7        30.18R
$$

VAZ020-022-025-037-045-301600-
WEST CENTRAL AND SOUTHWEST VIRGINIA

CITY           SKY/WX    TMP DP  RH WIND       PRES   REMARKS
STAUNTON*      CLOUDY    57  55  92 SW3       30.18R
WAYNESBORO*    CLOUDY    52  49  90 MISG      30.16R
HOT SPRINGS VA LGT RAIN  51  51 100 SE7       30.14R VSB<1/4
LYNCHBURG      CLOUDY    54  53  97 E7        30.18R
DANVILLE       CLOUDY    58  55  90 E6        30.16R
SOUTH BOSTON*  CLOUDY    56  55  96 NE6       30.16R
MARTINSVILLE   CLOUDY    55  54  96 E5        30.17S FOG
ROANOKE        DRIZZLE   56  54  93 SE8       30.17R FOG
BLACKSBURG     CLOUDY    56  55  97 E6        30.17S FOG
DUBLIN*        CLOUDY    60  56  86 E8        30.14S
MARION*        FAIR      63  54  71 E15       30.13S
HILLSVILLE*    CLOUDY    58  55  90 E5        30.12S
RICHLANDS*     FAIR      66  52  61 E7        30.06R
WISE*          CLOUDY    66  41  39 S8        30.07R
ABINGDON*      FAIR      72  54  53 E9        30.05R
$$

MDZ021>025-VAZ099-100-301600-
SOUTHERN MARYLAND AND THE DELMARVA PENINSULA

CITY           SKY/WX    TMP DP  RH WIND       PRES   REMARKS
PATUXENT RIVER CLOUDY    54  47  77 E8        30.20S
BAY BRIDGE APT NOT AVBL
LEONARDTOWN    CLOUDY    52  46  82 E5        30.21F
DOVER          CLOUDY    54  48  80 NE8       30.21R
GEORGETOWN     CLOUDY    53  46  77 NE8       30.22R
EASTON         CLOUDY   N/A N/A N/A E6        30.24S
CAMBRIDGE      CLOUDY    52  46  82 E7        30.20S
SALISBURY      CLOUDY    53  48  83 NE6       30.20R
OCEAN CITY     CLOUDY    53  47  79 NE8       30.21R
WALLOPS ISLAND CLOUDY    54  48  80 NE14      30.20R
ACCOMACK*      CLOUDY    54  32  43 NE10      30.19S
$$

NCZ012>017-030>032-301600-
NORTH CENTRAL AND EASTERN NORTH CAROLINA

CITY           SKY/WX    TMP DP  RH WIND       PRES   REMARKS
ROANOKE RAPIDS CLOUDY    55  52  88 NE7       30.16R
RALEIGH        CLOUDY    61  56  83 SE9       30.15R
ELIZABETH CITY CLOUDY    56  52  86 NE15      30.17S
AHOSKIE*       CLOUDY    56  52  88 NE7       30.16S
EDENTON*       CLOUDY    58  55  90 NE9       30.16F
CURRITUCK*     CLOUDY    56  52  87 N8        30.18S
KILL DEVIL HLS CLOUDY    56  52  84 N9        30.15F
MANTEO         NOT AVBL
CAPE HATTERAS  CLOUDY    61  54  77 NE13G20   30.13S
TARBORO*       CLOUDY    59  56  89 NE6       30.16R
GOLDSBORO      CLOUDY    66  63  88 E6        30.12R
WASHINGTON     CLOUDY    58  54  86 E7        30.15S
GREENVILLE     CLOUDY    59  55  88 E8        30.16R
NEW BERN       CLOUDY    61  55  81 E6        30.15S
WILMINGTON     CLOUDY    64  59  83 E13G20    30.11S
$$

VAZ048-301600-
ELSEWHERE

CITY           SKY/WX    TMP DP  RH WIND       PRES   REMARKS
HARRISBURG PA  CLOUDY    52  44  74 SW3       30.20F
BALTIMORE      CLOUDY    53  45  74 NE7       30.20S
ANNAPOLIS      CLOUDY    53  47  79 MISG      30.20F
ANDREWS AFB    CLOUDY    52  47  83 E7        30.18F
PHILADELPHIA   PTSUNNY   56  41  57 E7        30.22S
HENDERSON NC   CLOUDY    58  55  89 E8        30.15R
GREENSBORO     DRIZZLE   59  59 100 E6        30.13R FOG
ROCKY MOUNT    CLOUDY    60  54  80 NE6       30.15R
$$

VAZ100-301600-
MARINE

STATION/POSITION TIME  TEMP    WIND        PRES    WAVE   SWELL
                       AIR SEA DIR/SP/G            HT/PER HT/PER
                 (UTC) (F)     (DEG/KT/KT) (MB)    (FT/S) (FT/S)
BRANDYWINE LGT   1400   51      70/ 11/ 14 1022.4F
CAPE MAY NJ      1400   52 57   70/  7/ 13 1022.0F
LEWES DE         1400   51 54   60/ 13/ 17 1022.3F
15NM E FENWICK I 1450   51 51              1022.4R   6/ 9
OCEAN-CITY-INLET 1400   51 53   30/  5/ 10 1021.7R
WACHAPREAGUE VA  1400   53 57   50/ 11/ 14 1021.7R
THOMAS POINT MD  1500   51 57   30/ 10/ 11 1023.8F
GOOSES REEF MD   1500   52 57   70/  2/  4 1023.7R   1
COVE POINT MD    1400   50      60/  5/  8 1023.3R
SOLOMONS ISLAND  1400   51 60   80/  5/  8   N/A
BISHOPS HEAD MD  1400   52 56   40/  4/  7 1022.1R
PINEY POINT MD   1400          100/  6/  7   N/A
POTOMAC MD       1500   52 58   70/  6/ 10 1021.6F   0
CAMBRIDGE MD     1400   51 59   60/  7/  9 1021.9R
LEWISETTA VA     1406   52 59   80/  5/  7 1022.3R
RAPPAHANNOCK LGT 1400           40/  6/  8 1022.9R
STINGRAY PT      1500   54 60   80/ 10/ 12 1022.3F   1/ 3
YORK RVR RNG VA  1400   54      60/  7/  9 1021.4R
YORKTOWN VA      1400   54 62   60/ 11/ 13 1021.9R
JAMESTOWN VA     1500   56 66   30/  6/ 10   N/A     0
DOMINION TERM VA 1400   55      80/  8/ 11 1021.9R
KIPTOPEKE VA     1400      60   60/  6/  9   N/A
CHES BAY BRIDGE  1400   53 59   30/ 12/ 16 1021.6R
CAPE HENRY VA    1400   53      40/ 12/ 15   N/A
CHESAPEAKE LGHT  1400   52      30/ 15/ 16 1022.3R
WILLOUBY STN VA  1400   53      60/ 10/ 11 1022.8R
CAPE HENRY BUOY  1412      55                N/A     5/ 9   2/11
CAPE CHARLES BUO 1426      56                N/A     5/ 9   3/ 9
OFFSHORE WE BUOY 1421      53                N/A     6/ 8   5/ 8
64NM E OF VA BCH 1450   52 53   10/ 16/ 17 1020.7    6/10   5/10
DUCK PIER NC     1400   53 67   10/ 11/ 14 1021.0R
44100 DUCK FRF   1424      56                N/A     6/ 9   2/11
44056 DUCK FRF   1411      58                N/A     5/10   2/11
OREGON INLET NC  1400   54 62   10/  8/ 13 1021.1R
HATTERAS NC      1400   60 69   30/ 10/ 18 1020.0R
DIAMOND SHLS NC  1450   59 74   30/ 14/ 17 1020.2    5/10   3/10
CAPE LOOKOUT NC  1500   62      50/  7/ 10 1020C1F1C2F2C3F3C4F4C5F5C6F6C7F7C8M1C9!



USA.gov is the U.S. government's official web portal to all federal, state and local government web resources and services.